Flagstaff, Arizona, United States (86001)
Lat: 35.20N, Lon: 111.65W
Wx Zone: AZZ015
Local Info
Past Weather Observations for Sunday, April 13, 2014

NOTE: This archive is for the closest National Weather Service station to Flagstaff. Information may differ from the station used for current weather conditions.

Time Weather Temperature Dewpoint Humidity Pressure Winds Precip Visibility
23:57
Clear
32°F / 0°C 9°F / -13°C 37% 30.15 in
(1021 mb)
Calm - 10SM
22:57
Clear
39°F / 4°C 9°F / -13°C 28% 30.12 in
(1020 mb)
ENE 5.8 mph
(ENE 9 kph)
- 10SM
21:57
Clear
43°F / 6°C 7°F / -14°C 22% 30.09 in
(1019 mb)
NNW 4.6 mph
(NNW 7 kph)
- 10SM
20:57
Clear
45°F / 7°C -6°F / -21°C 12% 30.06 in
(1018 mb)
Variable 5.8 mph
(Variable 9 kph)
- 10SM
19:57
Clear
46°F / 8°C -9°F / -23°C 9% 30.04 in
(1017 mb)
Variable 4.6 mph
(Variable 7 kph)
- 10SM
18:57
Clear
50°F / 10°C -8°F / -22°C 9% 29.98 in
(1015 mb)
NW 8.1 mph
(NW 13 kph)
- 10SM
17:57
Partly Cloudy
57°F / 14°C 5°F / -15°C 12% 29.92 in
(1013 mb)
W 19.6 mph
(W 32 kph)
- 10SM
16:57
Partly Cloudy
61°F / 16°C 10°F / -12°C 13% 29.89 in
(1012 mb)
SSW 15 mph
(SSW 24 kph)
- 10SM
15:57
Mostly Cloudy
61°F / 16°C 14°F / -10°C 16% 29.89 in
(1012 mb)
SSW 27.6 mph
(SSW 44 kph)
- 10SM
14:57
Overcast
59°F / 15°C 25°F / -4°C 27% 29.89 in
(1012 mb)
SSW 29.9 mph
(SSW 48 kph)
- 10SM
13:57
Mostly Cloudy
61°F / 16°C 25°F / -4°C 25% 29.89 in
(1012 mb)
SSW 28.8 mph
(SSW 46 kph)
- 10SM
12:57
Partly Cloudy
61°F / 16°C 25°F / -4°C 25% 29.89 in
(1012 mb)
SW 32.2 mph
(SW 52 kph)
- 10SM
11:57
Partly Cloudy
59°F / 15°C 25°F / -4°C 27% 29.95 in
(1014 mb)
SW 27.6 mph
(SW 44 kph)
- 10SM
10:57
Clear
57°F / 14°C 23°F / -5°C 27% 29.95 in
(1014 mb)
SW 23 mph
(SW 37 kph)
- 10SM
09:57
Clear
55°F / 13°C 19°F / -7°C 24% 29.95 in
(1014 mb)
SSW 20.7 mph
(SSW 33 kph)
- 10SM
08:57
Clear
52°F / 11°C 18°F / -8°C 26% 29.95 in
(1014 mb)
SW 18.4 mph
(SW 30 kph)
- 10SM
07:57
Clear
48°F / 9°C 18°F / -8°C 29% 29.92 in
(1013 mb)
SW 20.7 mph
(SW 33 kph)
- 10SM
06:57
Clear
34°F / 1°C 18°F / -8°C 51% 29.95 in
(1014 mb)
SSW 3.5 mph
(SSW 6 kph)
- 10SM
05:57
Clear
27°F / -3°C 12°F / -11°C 54% 29.92 in
(1013 mb)
Calm - 10SM
04:57
Clear
28°F / -2°C 12°F / -11°C 51% 29.95 in
(1014 mb)
Calm - 10SM
03:57
Clear
30°F / -1°C 12°F / -11°C 47% 29.95 in
(1014 mb)
SW 3.5 mph
(SW 6 kph)
- 10SM
02:57
Clear
30°F / -1°C 12°F / -11°C 47% 29.95 in
(1014 mb)
Calm - 10SM
01:57
Clear
32°F / 0°C 12°F / -11°C 44% 29.95 in
(1014 mb)
Calm - 10SM
00:57
Clear
37°F / 3°C 12°F / -11°C 35% 29.95 in
(1014 mb)
SW 3.5 mph
(SW 6 kph)
- 10SM
Time Weather Temperature Dewpoint Humidity Pressure Winds Precip Visibility


Weather for websites

WeatherForYou.com, LLC is not responsible for any damages or problems caused by this service. Current weather conditions are obtained from the closest station including government and personal stations which may have varying degrees of accuracy. Weather forecasts are derived from the NOAA NDFD. Like all things, this site belongs to Jesus Christ... He just trusts me to maintain it. If you have any questions or comments email webmaster@weatherforyou.com

Copyright © 2014, WeatherForYou.com LLC. All rights reserved.